Temperature
25 23 22 23 23 25 25 26 26 26 27 26 26 26 26 26 23 20 20 21 21 22 22 21 21 21 20 20 20 20 20 19 19 19 19 19 18 18 18 18 19 18 18 18
22 23 24 26 27 27 27 25 25 26 26 26 25 25 24 23 22 20 20 21 21 21 22 21 21 20 20 20 19 19 19 19 19 19 18 18 18 18 18 18 18 18 17 18
22 25 27 27 27 26 25 24 24 24 24 25 25 22 21 20 21 21 22 22 21 21 20 20 21 21 21 21 20 20 20 20 19 19 18 18 18 18 17 17 17 18 18 18
25 27 27 27 26 26 24 25 25 25 23 21 23 20 20 19 20 21 21 21 21 21 21 21 22 22 22 21 21 20 20 20 19 19 18 18 17 16 16 16 16 17 17 17
25 26 26 26 26 27 25 25 24 24 23 22 21 20 20 19 19 19 20 21 21 22 22 22 23 23 22 21 21 20 20 19 19 18 18 17 16 16 16 16 16 16 17 17
25 26 26 26 27 26 25 23 22 19 19 20 21 21 20 19 19 19 19 21 22 22 22 23 23 22 22 21 20 20 19 19 19 18 17 16 16 16 15 16 16 16 16 16
23 24 25 25 25 25 23 21 19 19 19 20 20 20 20 20 20 20 19 21 22 23 23 23 22 22 22 21 20 20 19 19 19 18 17 16 16 15 15 16 15 15 15 15
21 20 25 25 25 24 24 20 19 19 19 18 20 19 21 21 22 22 23 23 23 24 23 23 22 22 21 21 20 20 19 19 18 18 17 17 16 15 15 15 14 14 14 13
23 23 26 26 26 25 23 22 21 20 19 18 20 22 22 21 20 21 22 23 23 23 22 22 23 22 21 21 20 20 19 19 18 17 16 16 15 15 14 14 13 13 13 13
24 22 24 25 26 25 23 23 18 20 19 18 20 20 20 21 20 20 19 21 22 22 22 23 22 22 21 21 20 20 19 19 17 16 16 16 15 14 14 13 13 12 12 13
23 22 21 23 23 24 23 22 21 20 19 18 18 19 20 21 20 19 21 22 22 22 22 22 22 21 21 21 20 20 20 19 17 16 16 15 14 14 13 12 13 12 12 12
23 19 20 20 22 23 22 22 20 19 19 18 18 18 20 21 21 21 21 21 22 22 22 22 21 21 21 20 20 20 20 18 17 16 15 15 14 14 13 12 12 12 12 12
23 19 18 19 20 21 21 23 22 19 18 19 18 18 19 18 18 20 20 20 19 19 19 19 20 21 21 20 20 20 19 18 17 16 15 15 14 13 13 13 12 12 12 12
21 19 19 18 19 20 20 21 22 20 17 19 18 19 17 16 16 16 17 17 17 17 17 17 18 18 19 20 20 19 19 18 17 16 15 15 15 14 13 13 12 12 12 12
19 20 19 19 19 21 21 21 22 21 20 18 18 16 16 17 16 16 16 15 15 15 15 15 16 17 17 17 18 18 18 18 17 16 16 15 15 14 13 13 13 12 12 12
19 20 20 20 21 21 20 21 21 21 20 18 16 17 17 17 15 14 14 13 13 13 13 14 15 16 16 16 16 16 17 17 17 17 16 15 14 14 13 13 13 12 12 11
19 19 19 18 19 19 18 20 20 18 17 17 16 15 14 14 12 11 12 12 12 12 12 12 14 15 15 15 14 15 16 16 17 16 16 16 15 14 13 13 13 12 12 11
18 17 17 17 18 18 20 20 18 15 13 13 12 10 10 10 11 11 11 11 11 12 12 12 12 13 13 13 13 13 14 15 16 16 16 16 15 14 13 13 13 12 12 11
17 18 18 16 17 18 20 19 19 18 12 11 10 9 9 9 11 11 11 12 11 11 12 12 12 12 12 12 13 12 12 14 15 15 15 15 15 14 14 13 13 12 11 11
17 16 17 16 16 16 16 16 15 17 12 9 8 8 7 8 8 9 10 10 11 11 10 10 11 11 11 10 11 11 11 11 12 13 13 13 15 15 14 14 13 12 11 11
18 17 17 16 16 17 13 13 15 15 10 8 8 8 8 7 7 8 9 9 9 10 10 10 10 10 10 10 10 10 10 10 10 11 12 13 13 14 14 14 13 12 12 11
17 17 17 16 16 13 11 12 11 9 9 10 10 9 9 9 9 10 10 10 10 10 10 10 10 10 10 10 10 10 9 9 9 9 10 11 11 13 14 14 13 12 12 11
16 17 15 13 12 11 10 10 10 11 11 11 10 11 11 10 10 10 10 10 10 10 10 10 9 9 9 10 9 9 9 9 9 9 8 9 9 11 13 13 12 12 12 12
16 15 13 11 10 11 11 12 11 11 10 11 11 11 11 10 10 9 9 9 9 10 9 9 9 9 9 9 9 9 8 8 8 8 8 8 9 9 11 13 12 12 12 12
13 12 11 10 10 11 11 12 11 11 11 11 11 11 10 9 9 9 9 9 10 9 9 9 9 9 9 9 9 9 8 8 8 8 8 8 8 9 9 11 12 12 12 12
11 10 9 9 11 10 11 13 12 12 12 12 11 11 11 10 9 10 10 9 9 9 9 9 9 9 9 8 8 8 8 8 8 8 7 7 8 8 9 11 12 12 11 11
Wind_Speed
2 0 5 7 7 8 6 3 4 6 9 8 7 5 6 9 12 16 13 12 11 8 5 3 3 4 3 1 0 3 3 1 1 1 1 2 4 4 5 6 6 6 7 8
4 6 14 9 3 3 2 4 4 5 10 8 8 7 8 5 13 17 13 10 8 6 4 3 2 2 0 2 2 1 1 3 1 2 3 4 4 5 5 6 7 8 8 8
9 8 6 2 6 6 5 4 3 3 4 5 7 7 10 8 15 13 8 8 8 8 6 5 4 4 4 2 3 5 5 5 5 4 3 3 4 5 4 5 6 7 7 8
3 3 3 5 5 4 3 1 4 5 4 1 4 1 1 6 8 8 9 7 8 8 9 8 8 8 8 8 8 8 8 8 7 7 4 4 4 4 5 5 6 9 10 10
4 2 1 1 3 4 2 1 5 3 5 4 2 4 4 5 5 6 4 4 6 9 11 12 12 11 10 9 9 8 8 8 9 8 6 3 3 4 4 6 9 11 11 11
4 5 3 2 3 3 3 7 9 7 4 3 4 3 5 6 6 4 4 6 8 9 11 12 11 8 7 6 7 7 5 7 7 4 2 2 2 4 5 8 9 10 11 12
6 5 5 2 4 6 7 6 5 7 5 4 4 3 7 7 8 9 11 12 12 10 9 9 10 7 6 6 8 6 4 6 5 5 4 5 4 3 3 6 8 12 12 13
3 5 3 2 3 4 4 7 5 2 4 6 3 5 6 5 9 12 13 12 12 10 8 8 9 7 6 7 6 5 7 7 6 7 7 7 4 2 2 5 8 10 11 12
1 4 5 6 5 7 4 3 6 5 1 2 3 1 3 4 2 6 10 10 10 9 7 9 9 9 8 7 5 6 8 8 8 5 5 5 3 1 3 5 7 9 10 9
2 4 5 6 4 4 5 4 3 3 1 3 6 4 6 9 12 13 10 8 8 5 4 4 6 7 6 5 3 5 8 8 7 7 7 6 5 2 1 4 7 8 10 10
2 0 6 5 1 3 0 1 3 3 3 3 4 7 8 11 13 13 9 7 5 4 4 6 7 8 8 7 5 4 4 4 5 7 7 7 6 4 2 3 5 7 8 8
2 3 4 7 7 5 6 5 5 4 5 4 4 9 9 3 1 6 6 4 2 4 5 5 7 8 7 7 5 5 5 6 7 9 8 6 6 5 4 3 4 6 7 8
2 3 5 10 8 7 5 2 3 3 1 6 6 6 8 12 12 10 9 8 9 11 12 11 7 7 8 7 6 6 7 8 8 9 8 7 7 7 6 5 4 5 6 7
5 4 5 5 6 5 8 12 14 5 3 9 8 1 10 10 10 10 10 9 9 11 14 18 16 9 8 6 6 7 8 9 9 9 9 8 8 8 7 6 5 5 6 5
4 4 6 8 8 7 10 13 16 13 13 9 4 9 2 1 6 7 7 11 13 14 14 14 15 14 12 11 9 7 8 9 9 8 9 9 8 7 7 6 6 4 3 3
2 3 4 4 6 7 10 13 11 3 4 7 11 5 3 3 7 10 12 12 11 12 12 11 10 10 9 12 16 13 10 9 9 8 9 8 9 9 8 7 7 5 3 2
3 4 2 4 5 8 5 5 6 9 11 4 6 9 11 9 9 9 10 11 12 12 14 13 11 10 9 9 9 12 11 10 7 9 10 10 10 10 9 8 7 6 5 5
6 6 4 2 4 2 3 4 14 14 13 13 13 14 16 16 6 7 11 10 10 10 10 11 9 8 8 9 10 12 13 12 9 10 10 10 11 11 9 9 8 7 6 6
7 7 3 2 3 6 2 4 3 2 7 10 9 11 14 18 13 9 18 13 11 10 10 10 10 7 7 7 9 12 13 13 12 10 9 10 13 13 11 9 9 7 6 6
5 4 4 3 3 6 3 10 15 9 1 7 9 12 13 13 12 13 20 21 20 18 18 18 15 9 7 8 7 8 11 13 10 10 11 10 12 15 13 11 9 6 6 7
6 4 2 3 5 4 7 14 13 4 2 4 4 5 7 4 11 16 18 17 16 14 16 18 16 10 7 6 5 7 8 10 12 11 11 11 14 14 13 10 8 8 8 9
4 4 3 2 4 5 13 8 7 2 2 6 8 9 10 12 16 16 16 17 17 16 16 16 13 9 8 5 4 7 7 6 8 11 12 11 11 12 12 11 9 10 11 10
4 4 2 4 3 1 6 8 5 5 6 9 10 13 13 14 16 16 16 16 16 16 15 12 11 12 10 8 6 7 7 6 6 9 11 11 9 10 11 12 11 9 11 10
7 7 4 3 4 1 5 6 5 5 11 16 16 17 18 18 18 18 17 17 16 17 15 14 13 12 12 11 10 10 9 7 7 11 11 10 9 9 11 10 11 11 10 11
6 7 6 4 5 5 6 7 10 13 16 18 18 17 20 20 21 21 19 19 19 18 16 16 14 15 14 13 12 12 11 9 7 9 12 8 8 10 10 12 12 12 13 13
6 4 3 2 5 5 10 14 16 17 17 19 19 20 21 20 20 22 19 19 18 17 17 18 19 18 14 11 11 11 14 12 8 7 9 7 6 10 9 10 8 5 9 16
Wind_Direction
284 289 267 257 217 216 235 291 7 345 351 49 45 79 135 188 144 119 118 123 134 148 154 160 102 91 91 40 210 235 255 258 175 268 298 284 269 266 273 279 275 287 283 269
336 260 245 244 279 269 327 33 26 351 360 37 29 33 30 53 137 132 130 134 142 142 166 194 96 13 99 90 28 76 233 275 234 209 231 240 249 260 263 272 282 285 282 274
229 245 230 279 347 10 28 71 41 14 349 33 43 17 20 53 107 124 137 138 141 157 183 202 180 229 249 210 209 193 218 223 206 205 229 290 309 309 309 302 296 291 277 273
252 294 57 15 344 27 329 49 44 7 30 332 98 200 351 155 133 155 157 158 156 166 171 188 187 195 199 197 197 205 214 218 218 213 213 240 257 275 279 283 287 291 290 285
309 348 50 352 328 10 271 3 46 356 342 310 209 148 225 224 188 190 165 163 191 185 173 193 203 206 207 202 204 210 220 224 225 221 218 240 281 291 308 322 322 312 302 288
304 314 308 288 10 31 62 31 12 15 42 322 265 161 248 217 211 199 205 206 210 201 200 214 225 222 225 229 223 227 231 239 238 224 178 108 58 12 354 338 326 317 309 299
324 303 303 329 30 16 56 57 20 2 8 277 233 158 258 243 212 190 188 216 232 230 225 234 243 236 227 229 234 250 220 216 196 162 134 124 115 78 355 322 323 316 309 300
317 318 316 333 176 171 108 121 144 180 256 280 263 217 250 231 178 179 192 212 231 242 243 243 240 224 217 218 226 212 196 209 192 175 157 145 135 101 352 328 315 313 310 303
133 284 301 285 231 131 109 157 156 148 259 307 288 257 281 274 265 196 203 220 244 259 243 230 216 193 190 194 187 192 206 218 202 178 132 134 149 96 7 334 326 328 324 328
208 274 298 326 21 57 121 141 64 40 55 316 291 267 212 200 222 224 219 225 240 241 213 204 178 170 179 183 174 191 212 213 196 174 172 169 178 154 359 327 332 331 329 338
100 1 304 336 331 226 156 97 111 133 151 185 282 278 225 210 214 209 196 169 166 182 208 211 206 199 189 180 171 184 201 206 189 196 193 181 184 186 234 299 316 319 322 336
113 105 286 270 263 252 181 181 144 156 236 197 219 270 280 254 240 140 129 93 32 333 312 273 230 205 195 198 194 176 175 188 195 204 211 209 205 205 223 266 293 301 318 337
127 76 351 338 342 355 18 313 215 179 189 236 236 267 11 48 56 58 63 40 18 6 1 348 307 232 220 219 213 194 180 198 203 202 209 221 215 216 226 237 255 280 309 331
93 120 156 205 246 286 307 313 309 302 243 259 222 152 39 36 45 41 43 44 36 27 22 12 3 328 287 257 232 219 209 210 207 205 208 215 213 211 220 235 246 276 301 319
101 172 200 227 249 272 290 297 297 282 264 243 144 115 115 29 66 57 41 40 32 24 21 19 12 12 3 339 308 265 241 225 217 208 210 212 209 209 216 228 233 244 273 325
128 202 212 252 271 289 299 302 294 311 39 96 99 107 227 301 72 50 38 45 31 18 11 8 11 18 8 356 341 310 280 255 236 225 221 204 204 210 212 219 217 208 220 210
220 179 176 269 300 322 332 338 54 58 21 45 73 27 5 10 39 48 38 30 22 14 359 348 351 352 345 335 337 339 319 289 256 242 224 198 199 208 211 209 205 201 199 178
175 138 149 238 360 332 250 106 102 85 43 35 43 30 19 3 330 46 29 5 349 340 324 309 308 316 321 323 329 333 339 311 270 233 221 196 193 204 207 201 200 199 175 174
150 145 152 183 211 265 258 6 311 170 69 44 52 30 12 353 356 335 331 322 309 301 291 285 284 285 297 309 328 338 332 339 327 289 241 208 191 195 203 201 192 190 167 166
40 76 145 190 228 253 273 323 325 317 127 51 38 14 2 359 343 316 309 315 318 318 320 318 308 298 304 310 333 347 329 322 326 322 308 267 205 188 200 199 178 174 170 170
336 327 250 244 249 256 336 322 323 312 332 13 4 321 328 303 266 280 294 294 289 294 299 303 307 299 282 294 328 327 336 331 328 317 318 302 245 193 195 187 171 166 167 162
302 298 289 282 288 318 348 2 21 14 221 254 276 279 272 262 265 277 285 289 291 290 293 300 305 291 276 288 312 311 314 310 321 318 316 299 266 221 188 179 172 169 162 165
349 345 5 42 60 39 69 112 175 212 262 284 294 294 281 270 273 279 280 282 285 284 283 280 293 296 288 284 282 280 277 281 302 303 302 300 289 238 202 178 170 169 166 171
347 25 68 97 40 112 145 165 209 265 281 284 284 282 276 270 275 277 277 279 281 282 284 283 286 286 288 285 274 260 256 271 296 299 294 296 296 269 220 189 171 173 178 180
343 1 17 60 0 307 290 308 277 269 272 275 279 277 270 271 276 277 277 278 277 277 276 275 274 278 275 276 280 276 258 250 251 276 279 271 284 278 234 202 184 182 187 186
16 20 27 300 256 243 267 271 272 287 287 282 283 283 282 280 275 276 276 274 275 274 270 266 266 270 263 258 263 268 266 253 248 263 272 262 271 280 257 208 184 175 192 193
Height
1509 1514 1517 1510 1508 1507 1507 1507 1508 1500 1489 1492 1497 1497 1497 1496 1497 1499 1502 1505 1507 1510 1512 1514 1514 1513 1514 1515 1515 1516 1516 1515 1515 1515 1514 1513 1512 1511 1510 1509 1507 1506 1506 1505
1516 1516 1505 1501 1497 1500 1502 1508 1508 1502 1493 1494 1499 1502 1500 1497 1500 1503 1506 1506 1508 1510 1512 1515 1514 1514 1513 1512 1513 1513 1513 1512 1512 1512 1511 1510 1508 1507 1506 1504 1502 1500 1499 1497
1518 1506 1496 1499 1500 1504 1507 1510 1510 1510 1501 1498 1502 1513 1509 1505 1504 1507 1508 1508 1509 1512 1515 1515 1513 1513 1513 1511 1510 1511 1510 1510 1510 1509 1508 1506 1504 1502 1500 1498 1495 1493 1492 1490
1505 1498 1497 1500 1503 1502 1511 1502 1500 1502 1510 1519 1513 1535 1522 1512 1508 1506 1504 1505 1507 1510 1512 1513 1510 1509 1509 1508 1507 1507 1506 1505 1505 1504 1503 1501 1500 1497 1495 1492 1489 1487 1485 1483
1508 1502 1501 1504 1502 1498 1503 1497 1499 1501 1506 1515 1515 1526 1523 1515 1512 1507 1506 1507 1508 1509 1507 1508 1506 1504 1505 1504 1504 1503 1502 1501 1500 1499 1498 1497 1495 1493 1490 1487 1484 1480 1477 1474
1505 1500 1498 1498 1496 1496 1497 1500 1504 1511 1519 1531 1518 1520 1524 1515 1510 1508 1506 1505 1506 1504 1503 1503 1502 1501 1502 1501 1501 1501 1499 1498 1496 1495 1494 1493 1491 1489 1486 1482 1478 1473 1468 1463
1513 1505 1499 1497 1501 1500 1502 1518 1536 1539 1541 1535 1518 1522 1519 1501 1498 1497 1500 1501 1500 1499 1500 1499 1499 1498 1499 1499 1498 1498 1497 1495 1493 1492 1491 1490 1488 1485 1482 1478 1473 1467 1461 1455
1528 1531 1503 1499 1502 1505 1504 1520 1542 1551 1549 1540 1521 1525 1510 1493 1491 1492 1494 1495 1496 1496 1496 1496 1496 1496 1497 1497 1496 1495 1494 1492 1490 1489 1488 1487 1485 1482 1479 1474 1469 1464 1457 1452
1523 1520 1501 1496 1493 1497 1510 1514 1513 1527 1533 1541 1527 1511 1502 1496 1494 1492 1491 1491 1491 1492 1492 1492 1492 1491 1493 1493 1493 1492 1491 1489 1487 1485 1484 1483 1481 1479 1475 1470 1466 1460 1455 1451
1511 1522 1506 1497 1494 1497 1502 1505 1525 1528 1544 1550 1530 1522 1513 1500 1497 1490 1488 1488 1489 1491 1491 1490 1490 1490 1490 1490 1490 1489 1488 1485 1484 1481 1480 1479 1477 1475 1472 1468 1465 1460 1455 1451
1506 1518 1516 1505 1506 1505 1505 1508 1512 1522 1529 1544 1546 1529 1495 1489 1485 1486 1486 1487 1490 1492 1492 1491 1490 1488 1487 1487 1487 1487 1485 1482 1481 1479 1477 1475 1473 1471 1469 1466 1463 1459 1455 1452
1505 1519 1523 1514 1501 1497 1500 1506 1513 1529 1528 1529 1534 1525 1485 1484 1483 1486 1490 1492 1493 1493 1492 1490 1488 1485 1484 1484 1484 1483 1481 1479 1478 1477 1475 1471 1470 1467 1466 1464 1462 1459 1456 1453
1505 1521 1535 1529 1517 1506 1506 1503 1506 1515 1520 1524 1530 1524 1495 1489 1490 1493 1495 1495 1495 1494 1492 1489 1486 1484 1483 1482 1481 1480 1479 1477 1475 1474 1472 1469 1466 1465 1463 1462 1460 1459 1457 1454
1504 1519 1530 1540 1529 1517 1514 1506 1501 1508 1524 1518 1516 1509 1508 1501 1499 1498 1498 1496 1495 1493 1491 1488 1485 1483 1483 1483 1481 1479 1475 1473 1471 1470 1468 1466 1464 1463 1461 1459 1458 1458 1457 1455
1507 1517 1518 1517 1513 1510 1509 1505 1500 1501 1498 1508 1504 1512 1509 1503 1502 1502 1499 1497 1494 1493 1492 1491 1488 1485 1483 1483 1480 1477 1472 1469 1468 1466 1464 1462 1461 1461 1460 1458 1456 1456 1457 1455
1505 1512 1513 1514 1508 1506 1506 1500 1494 1494 1496 1503 1507 1508 1505 1503 1504 1501 1499 1499 1499 1498 1495 1492 1488 1484 1483 1481 1478 1475 1470 1467 1464 1462 1460 1459 1457 1457 1457 1456 1455 1455 1456 1455
1506 1510 1516 1521 1511 1509 1514 1501 1499 1504 1506 1505 1511 1515 1510 1512 1508 1506 1503 1500 1495 1493 1494 1491 1487 1483 1480 1476 1474 1468 1465 1463 1460 1460 1456 1454 1453 1452 1452 1453 1453 1453 1454 1454
1503 1511 1517 1522 1518 1530 1512 1498 1498 1507 1515 1513 1514 1516 1516 1516 1512 1507 1505 1502 1497 1494 1492 1490 1485 1478 1474 1471 1467 1462 1459 1457 1453 1453 1452 1450 1449 1448 1447 1447 1450 1451 1451 1453
1496 1506 1514 1523 1525 1517 1505 1500 1498 1500 1516 1518 1517 1516 1514 1512 1504 1503 1503 1498 1491 1487 1484 1481 1479 1475 1471 1466 1461 1457 1454 1450 1446 1446 1446 1444 1443 1443 1443 1443 1444 1447 1449 1451
1500 1503 1512 1519 1525 1525 1514 1505 1499 1500 1514 1520 1518 1517 1513 1509 1510 1502 1496 1494 1486 1480 1477 1474 1471 1468 1467 1461 1455 1451 1449 1447 1443 1441 1439 1439 1438 1437 1438 1438 1438 1443 1447 1449
1511 1510 1513 1517 1520 1511 1516 1508 1501 1511 1526 1524 1517 1516 1512 1507 1507 1497 1489 1488 1485 1479 1476 1471 1465 1462 1459 1456 1451 1447 1441 1440 1437 1433 1430 1429 1429 1431 1432 1432 1433 1437 1443 1446
1516 1515 1514 1515 1516 1526 1519 1510 1519 1527 1523 1519 1514 1511 1505 1500 1495 1491 1487 1483 1479 1474 1470 1465 1462 1458 1453 1448 1444 1441 1437 1433 1430 1427 1421 1418 1419 1421 1424 1425 1428 1431 1437 1441
1513 1513 1515 1523 1529 1530 1524 1522 1526 1524 1520 1516 1513 1508 1503 1496 1491 1484 1479 1476 1471 1468 1463 1460 1456 1450 1444 1441 1439 1436 1432 1428 1422 1420 1414 1409 1410 1411 1415 1417 1421 1426 1430 1435
1511 1511 1516 1523 1528 1527 1524 1523 1523 1521 1517 1511 1505 1499 1496 1489 1482 1478 1472 1467 1462 1458 1454 1451 1446 1440 1436 1433 1430 1426 1423 1420 1414 1410 1406 1402 1404 1402 1404 1409 1412 1418 1423 1428
1523 1521 1523 1527 1529 1527 1525 1522 1518 1511 1505 1501 1495 1491 1486 1480 1473 1467 1460 1456 1451 1446 1442 1440 1436 1429 1425 1422 1419 1415 1413 1411 1406 1402 1400 1398 1397 1396 1396 1400 1403 1409 1414 1420
1531 1532 1534 1535 1531 1528 1521 1514 1510 1505 1500 1495 1489 1483 1477 1471 1466 1460 1452 1447 1441 1436 1432 1428 1424 1419 1414 1412 1409 1407 1403 1399 1396 1393 1392 1390 1390 1389 1389 1392 1396 1401 1407 1414